星链-30578 (STARLINK-30578 )

导读

STARLINK-30578是美国(US)SpaceX星链项目的卫星,于2023年10月18日发射升空,隶属于第二代星链星座,旨在为全球用户提供低延迟、高速率的宽带互联网接入服务。星链项目通过批量发射低轨卫星组网,持续扩充星座规模,该卫星入轨后进一步提升了星链系统的服务覆盖能力与网络稳定性。

Basic Information
目录编号:
58093
目录名称:
STARLINK-30578
国际标识:
2023-160U
轨道中心:
EARTH
卫星名称:
星链-30578
卫星全名:
星链-30578 (STARLINK-30578 )
卫星状态:
在轨 (已飞行974 天)
发射日期:
2023-10-18 UTC
国别 :
美国 (US)
星等 :
--
Orbit Information
数据来源 国际轨道数据 AOE轨道数据
星历时间 2026-06-17T23:23:09+0800
20小时前
查看轨道信息
2026-06-17T06:00:00+0800
1天前
查看轨道信息
半长轴 6861.186km 6861.184km
偏心率 0.0001961 0.0002372
轨道倾角 43.004° 43.001°
近地点辐角 254.832° 217.958°
升交点赤经 233.271° 237.363°
平近点角 105.232° 113.700°
近地点 481.703km 481.419km
远地点 484.395km 484.675km
周期 94.267分钟 94.267分钟
每日圈数 15.275801 15.275809
Detailed Information
固有亮度:
5
最大亮度:
0.3
卫星平台:
Starlink v2.0 mini
覆盖范围:
全球
运营商:
太空探索技术公司
运营商所在国:
美国
制造商(研发单位):
太空探索技术公司
制造商所在国:
美国
使用方式:
暂无
Satellite Introduction
星链(Starlink)计划是由太空探索技术公司(SpaceX)提出的一个巨型低轨卫星互联网星座项目,计划在2019年至2024年间在太空搭建由约1.2万颗卫星组成的“星链”网络,其中1584颗将部署在地球上空550千米处的近地轨道,并从2020年开始工作。该卫星仍在工作。
2D Orbit Map
3D Orbit Map
Orbit Altitude Analysis Chart
Orbit Inclination Analysis Chart
Orbit Comprehensive Analysis Chart
View Comprehensive Chart